LOT3EZ EPWA-EPGD

Flight info

Callsign LOT3EZ
Flight time 0h 33m
Altitude 26000
Route OLILA L621 RILAB DCT OSLOG
Aircraft B738/M-SDE2E3FGHIJ1RWYZ/LB1

Departure

Time 2026-05-07 18:26
Airport Warsaw Chopin Airport (EPWA)

Arrival

Time 2026-05-07 18:59
Airport Gdańsk Lech Wałęsa Airport (EPGD)
Time Latitude Longitude Altitude Speed Heading
2026-05-07 17:56 52.16999 20.97147 332 ft 0 kts 70°
2026-05-07 18:17 52.16998 20.97143 331 ft 3 kts 70°
2026-05-07 18:18 52.16989 20.97105 330 ft 2 kts 70°
2026-05-07 18:18 52.16982 20.97070 332 ft 4 kts 70°
2026-05-07 18:18 52.16974 20.97033 330 ft 4 kts 83°
2026-05-07 18:18 52.16979 20.96999 331 ft 4 kts 144°
2026-05-07 18:19 52.17001 20.96979 330 ft 4 kts 153°
2026-05-07 18:19 52.17005 20.96975 330 ft 1 kts 153°
2026-05-07 18:21 52.17004 20.96976 330 ft 1 kts 153°
2026-05-07 18:21 52.16982 20.96996 330 ft 8 kts 152°
2026-05-07 18:21 52.16921 20.97049 335 ft 11 kts 152°
2026-05-07 18:22 52.16856 20.97105 335 ft 10 kts 152°
2026-05-07 18:22 52.16814 20.97141 335 ft 10 kts 152°
2026-05-07 18:22 52.16733 20.97213 335 ft 10 kts 151°
2026-05-07 18:22 52.16673 20.97266 332 ft 10 kts 151°
2026-05-07 18:23 52.16617 20.97316 335 ft 9 kts 151°
2026-05-07 18:23 52.16569 20.97392 333 ft 11 kts 118°
2026-05-07 18:23 52.16535 20.97514 335 ft 13 kts 115°
2026-05-07 18:23 52.16492 20.97663 334 ft 16 kts 115°
2026-05-07 18:24 52.16428 20.97806 335 ft 17 kts 174°
2026-05-07 18:24 52.16324 20.97731 335 ft 16 kts 211°
2026-05-07 18:24 52.16329 20.97584 335 ft 0 kts 293°
2026-05-07 18:25 52.16345 20.97521 334 ft 29 kts 293°
2026-05-07 18:25 52.16534 20.96854 333 ft 101 kts 294°
2026-05-07 18:26 52.16916 20.95513 371 ft 156 kts 297°
2026-05-07 18:26 52.17407 20.93878 1004 ft 163 kts 298°
2026-05-07 18:26 52.17917 20.92181 1732 ft 170 kts 298°
2026-05-07 18:26 52.18447 20.90420 2422 ft 178 kts 302°
2026-05-07 18:27 52.19458 20.89078 2693 ft 203 kts 340°
2026-05-07 18:27 52.20855 20.88231 2923 ft 224 kts 337°
2026-05-07 18:27 52.22316 20.87191 3344 ft 234 kts 324°
2026-05-07 18:27 52.23508 20.85287 3667 ft 250 kts 311°
2026-05-07 18:28 52.24770 20.83244 4249 ft 261 kts 321°
2026-05-07 18:28 52.26254 20.81531 5122 ft 262 kts 324°
2026-05-07 18:28 52.27796 20.79896 5932 ft 266 kts 325°
2026-05-07 18:28 52.29376 20.78268 6700 ft 271 kts 327°
2026-05-07 18:29 52.31001 20.76738 7476 ft 275 kts 328°
2026-05-07 18:29 52.32680 20.75201 8240 ft 279 kts 328°
2026-05-07 18:29 52.34387 20.73645 9023 ft 282 kts 328°
2026-05-07 18:29 52.36112 20.72067 9797 ft 286 kts 328°
2026-05-07 18:30 52.37870 20.70453 10383 ft 296 kts 327°
2026-05-07 18:30 52.39742 20.68722 10565 ft 321 kts 327°
2026-05-07 18:30 52.41742 20.66866 10848 ft 338 kts 327°
2026-05-07 18:30 52.43817 20.64942 11431 ft 346 kts 327°
2026-05-07 18:31 52.45925 20.62986 12137 ft 350 kts 327°
2026-05-07 18:31 52.48054 20.61007 12869 ft 354 kts 327°
2026-05-07 18:31 52.50184 20.59023 13563 ft 360 kts 327°
2026-05-07 18:31 52.52375 20.56978 14253 ft 364 kts 326°
2026-05-07 18:32 52.54585 20.54913 14985 ft 367 kts 327°
2026-05-07 18:32 52.56815 20.52827 15704 ft 370 kts 326°
2026-05-07 18:32 52.59062 20.50721 16421 ft 374 kts 326°
2026-05-07 18:32 52.61334 20.48589 17118 ft 378 kts 326°
2026-05-07 18:33 52.63626 20.46435 17812 ft 382 kts 326°
2026-05-07 18:33 52.65946 20.44252 18488 ft 386 kts 326°
2026-05-07 18:33 52.68289 20.42044 19041 ft 390 kts 326°
2026-05-07 18:33 52.70659 20.39808 19585 ft 396 kts 326°
2026-05-07 18:34 52.73030 20.37567 20119 ft 400 kts 326°
2026-05-07 18:34 52.75462 20.35267 20671 ft 405 kts 326°
2026-05-07 18:34 52.77917 20.32942 21206 ft 410 kts 326°
2026-05-07 18:34 52.80396 20.30591 21818 ft 412 kts 326°
2026-05-07 18:35 52.82878 20.28238 22539 ft 411 kts 325°
2026-05-07 18:35 52.85357 20.25883 23267 ft 411 kts 325°
2026-05-07 18:35 52.87834 20.23528 23864 ft 412 kts 325°
2026-05-07 18:35 52.90323 20.21155 23991 ft 413 kts 325°
2026-05-07 18:36 52.92773 20.18818 24002 ft 412 kts 325°
2026-05-07 18:36 52.95254 20.16448 24016 ft 412 kts 324°
2026-05-07 18:36 52.97737 20.14072 24023 ft 410 kts 324°
2026-05-07 18:36 53.00177 20.11739 24010 ft 399 kts 324°
2026-05-07 18:37 53.02562 20.09456 24009 ft 394 kts 324°
2026-05-07 18:37 53.04930 20.07183 23965 ft 394 kts 324°
2026-05-07 18:37 53.07309 20.04889 23714 ft 395 kts 324°
2026-05-07 18:37 53.09680 20.02603 23477 ft 392 kts 324°
2026-05-07 18:38 53.12026 20.00341 23199 ft 387 kts 324°
2026-05-07 18:38 53.14313 19.98133 22911 ft 383 kts 324°
2026-05-07 18:38 53.16603 19.95921 22587 ft 379 kts 324°
2026-05-07 18:38 53.18875 19.93721 22192 ft 376 kts 324°
2026-05-07 18:39 53.21127 19.91538 21827 ft 373 kts 324°
2026-05-07 18:39 53.23359 19.89371 21450 ft 370 kts 324°
2026-05-07 18:39 53.25580 19.87212 21078 ft 368 kts 324°
2026-05-07 18:39 53.27783 19.85068 20710 ft 365 kts 324°
2026-05-07 18:40 53.29969 19.82937 20350 ft 363 kts 324°
2026-05-07 18:40 53.32144 19.80815 19984 ft 361 kts 324°
2026-05-07 18:40 53.34280 19.78729 19625 ft 359 kts 325°
2026-05-07 18:40 53.36432 19.76625 19265 ft 358 kts 325°
2026-05-07 18:41 53.38575 19.74527 18907 ft 356 kts 325°
2026-05-07 18:41 53.40708 19.72437 18540 ft 355 kts 325°
2026-05-07 18:41 53.42835 19.70349 18163 ft 353 kts 325°
2026-05-07 18:41 53.44953 19.68268 17759 ft 352 kts 326°
2026-05-07 18:42 53.47059 19.66198 17382 ft 350 kts 326°
2026-05-07 18:42 53.49150 19.64140 17012 ft 347 kts 326°
2026-05-07 18:42 53.51224 19.62097 16668 ft 344 kts 326°
2026-05-07 18:42 53.53285 19.60064 16304 ft 342 kts 326°
2026-05-07 18:43 53.55327 19.58047 15956 ft 339 kts 326°
2026-05-07 18:43 53.57356 19.56040 15603 ft 337 kts 326°
2026-05-07 18:43 53.59344 19.54071 15264 ft 335 kts 326°
2026-05-07 18:43 53.61344 19.52088 14920 ft 333 kts 326°
2026-05-07 18:44 53.63331 19.50117 14585 ft 331 kts 326°
2026-05-07 18:44 53.65302 19.48159 14239 ft 329 kts 326°
2026-05-07 18:44 53.67268 19.46203 13894 ft 327 kts 327°
2026-05-07 18:44 53.69221 19.44259 13517 ft 325 kts 327°
2026-05-07 18:45 53.71164 19.42323 13149 ft 323 kts 327°
2026-05-07 18:45 53.73089 19.40402 12806 ft 320 kts 327°
2026-05-07 18:45 53.75000 19.38493 12464 ft 318 kts 327°
2026-05-07 18:45 53.76896 19.36598 12126 ft 315 kts 327°
2026-05-07 18:46 53.78776 19.34716 11791 ft 313 kts 327°
2026-05-07 18:46 53.80646 19.32843 11456 ft 311 kts 327°
2026-05-07 18:46 53.82499 19.30984 11124 ft 309 kts 327°
2026-05-07 18:46 53.84321 19.29156 10805 ft 307 kts 327°
2026-05-07 18:47 53.86154 19.27313 10476 ft 306 kts 327°
2026-05-07 18:47 53.87958 19.25498 10343 ft 297 kts 327°
2026-05-07 18:47 53.89716 19.23728 10203 ft 291 kts 327°
2026-05-07 18:47 53.91452 19.21978 10110 ft 287 kts 327°
2026-05-07 18:48 53.93146 19.20270 10068 ft 279 kts 327°
2026-05-07 18:48 53.94783 19.18618 10052 ft 268 kts 327°
2026-05-07 18:48 53.96346 19.17040 10048 ft 255 kts 327°
2026-05-07 18:48 53.97836 19.15533 9989 ft 246 kts 327°
2026-05-07 18:49 53.99296 19.14053 9757 ft 243 kts 327°
2026-05-07 18:49 54.00741 19.12586 9330 ft 249 kts 328°
2026-05-07 18:49 54.02290 19.11011 8631 ft 267 kts 328°
2026-05-07 18:49 54.03853 19.09425 8581 ft 256 kts 328°
2026-05-07 18:50 54.05378 19.07874 8267 ft 257 kts 328°
2026-05-07 18:50 54.06923 19.06303 7896 ft 260 kts 329°
2026-05-07 18:50 54.08486 19.04712 7537 ft 263 kts 329°
2026-05-07 18:50 54.10052 19.03117 7283 ft 261 kts 329°
2026-05-07 18:51 54.11607 19.01531 7035 ft 259 kts 329°
2026-05-07 18:51 54.13148 18.99958 6790 ft 258 kts 329°
2026-05-07 18:51 54.14687 18.98386 6504 ft 257 kts 329°
2026-05-07 18:51 54.16206 18.96833 6230 ft 251 kts 330°
2026-05-07 18:52 54.17661 18.95342 5936 ft 243 kts 330°
2026-05-07 18:52 54.19088 18.93879 5620 ft 236 kts 331°
2026-05-07 18:52 54.20476 18.92456 5307 ft 229 kts 332°
2026-05-07 18:52 54.21823 18.91076 5041 ft 222 kts 332°
2026-05-07 18:53 54.23123 18.89741 4778 ft 215 kts 332°
2026-05-07 18:53 54.24386 18.88444 4500 ft 209 kts 333°
2026-05-07 18:53 54.25610 18.87184 4241 ft 202 kts 333°
2026-05-07 18:53 54.26789 18.85970 4047 ft 192 kts 333°
2026-05-07 18:54 54.27866 18.84734 3995 ft 188 kts 318°
2026-05-07 18:54 54.28564 18.82840 4016 ft 192 kts 304°
2026-05-07 18:54 54.29229 18.80869 4001 ft 191 kts 303°
2026-05-07 18:54 54.29828 18.78837 3998 ft 191 kts 299°
2026-05-07 18:55 54.30369 18.76748 3973 ft 194 kts 297°
2026-05-07 18:55 54.30900 18.74598 3763 ft 198 kts 297°
2026-05-07 18:55 54.31428 18.72429 3514 ft 195 kts 297°
2026-05-07 18:55 54.31946 18.70303 3235 ft 192 kts 297°
2026-05-07 18:56 54.32453 18.68224 2966 ft 187 kts 298°
2026-05-07 18:56 54.32950 18.66193 2713 ft 183 kts 298°
2026-05-07 18:56 54.33432 18.64220 2463 ft 174 kts 298°
2026-05-07 18:56 54.33886 18.62362 2222 ft 164 kts 298°
2026-05-07 18:57 54.34324 18.60579 2015 ft 164 kts 298°
2026-05-07 18:57 54.34762 18.58793 1773 ft 161 kts 298°
2026-05-07 18:57 54.35184 18.57075 1550 ft 156 kts 298°
2026-05-07 18:57 54.35605 18.55363 1340 ft 155 kts 297°
2026-05-07 18:58 54.36023 18.53660 1096 ft 154 kts 297°
2026-05-07 18:58 54.36435 18.51980 898 ft 153 kts 297°
2026-05-07 18:58 54.36839 18.50312 676 ft 148 kts 297°
2026-05-07 18:58 54.37242 18.48714 503 ft 141 kts 297°
2026-05-07 18:59 54.37593 18.47304 457 ft 111 kts 292°
2026-05-07 18:59 54.37831 18.46318 453 ft 64 kts 293°
2026-05-07 18:59 54.37991 18.45852 452 ft 37 kts 320°
2026-05-07 18:59 54.38101 18.45712 450 ft 0 kts 345°
2026-05-07 19:00 54.38120 18.45716 450 ft 6 kts 19°
2026-05-07 19:00 54.38136 18.45795 451 ft 10 kts 103°
2026-05-07 19:00 54.38106 18.45939 453 ft 16 kts 111°
2026-05-07 19:01 54.38160 18.46098 453 ft 14 kts 34°
2026-05-07 19:01 54.38156 18.46253 452 ft 14 kts 114°
2026-05-07 19:01 54.38121 18.46398 451 ft 3 kts 95°
2026-05-07 19:01 54.38136 18.46421 452 ft 3 kts 32°
2026-05-07 19:02 54.38154 18.46436 452 ft 3 kts 24°
2026-05-07 19:02 54.38162 18.46442 452 ft 0 kts 23°